TimeMST,TemperatureF,Dew PointF,Humidity,Sea Level PressureIn,VisibilityMPH,Wind Direction,Wind SpeedMPH,Gust SpeedMPH,PrecipitationIn,Events,Conditions,WindDirDegrees,DateUTC
12:53 AM,32.0,21.9,66,30.19,10.0,Calm,Calm,-,N/A,,Partly Cloudy,0,2012-11-16 07:53:00
1:53 AM,30.9,21.9,69,30.19,10.0,Calm,Calm,-,N/A,,Clear,0,2012-11-16 08:53:00
2:53 AM,28.9,23.0,78,30.19,10.0,South,3.5,-,N/A,,Mostly Cloudy,190,2012-11-16 09:53:00
3:53 AM,30.9,24.1,76,30.17,10.0,Calm,Calm,-,N/A,,Overcast,0,2012-11-16 10:53:00
4:53 AM,30.9,23.0,72,30.18,10.0,Calm,Calm,-,N/A,,Overcast,0,2012-11-16 11:53:00
5:53 AM,33.1,24.1,70,30.17,10.0,Calm,Calm,-,N/A,,Overcast,0,2012-11-16 12:53:00
6:53 AM,33.1,21.9,64,30.21,10.0,Calm,Calm,-,N/A,,Mostly Cloudy,0,2012-11-16 13:53:00
7:53 AM,37.0,21.9,54,30.23,10.0,Calm,Calm,-,N/A,,Partly Cloudy,0,2012-11-16 14:53:00
8:53 AM,42.1,21.0,43,30.24,10.0,Calm,Calm,-,N/A,,Clear,0,2012-11-16 15:53:00
9:53 AM,48.9,16.0,27,30.21,10.0,Calm,Calm,-,N/A,,Partly Cloudy,0,2012-11-16 16:53:00
10:53 AM,53.1,17.1,24,30.17,10.0,SSW,5.8,-,N/A,,Clear,200,2012-11-16 17:53:00
11:53 AM,57.0,18.0,22,30.13,10.0,Variable,5.8,-,N/A,,Overcast,0,2012-11-16 18:53:00
12:53 PM,59.0,19.0,21,30.07,10.0,SW,11.5,18.4,N/A,,Mostly Cloudy,220,2012-11-16 19:53:00
1:53 PM,60.1,19.0,20,30.06,10.0,SSW,12.7,23.0,N/A,,Mostly Cloudy,210,2012-11-16 20:53:00
2:53 PM,60.1,21.9,23,30.06,10.0,SSW,13.8,-,N/A,,Mostly Cloudy,200,2012-11-16 21:53:00
3:53 PM,57.9,19.9,23,30.07,10.0,WSW,11.5,-,N/A,,Scattered Clouds,240,2012-11-16 22:53:00
4:53 PM,53.1,15.1,22,30.09,10.0,SW,6.9,-,N/A,,Clear,230,2012-11-16 23:53:00
5:53 PM,48.9,17.1,28,30.11,10.0,Calm,Calm,-,N/A,,Clear,0,2012-11-17 00:53:00
6:53 PM,43.0,18.0,37,30.14,10.0,Calm,Calm,-,N/A,,Clear,0,2012-11-17 01:53:00
7:53 PM,36.0,19.9,52,30.15,10.0,Calm,Calm,-,N/A,,Clear,0,2012-11-17 02:53:00
8:53 PM,32.0,19.9,61,30.17,10.0,Calm,Calm,-,N/A,,Clear,0,2012-11-17 03:53:00
9:53 PM,34.0,19.9,56,30.13,10.0,Calm,Calm,-,N/A,,Clear,0,2012-11-17 04:53:00
10:53 PM,33.1,21.0,61,30.13,10.0,East,3.5,-,N/A,,Clear,90,2012-11-17 05:53:00
11:53 PM,34.0,21.0,59,30.11,10.0,Calm,Calm,-,N/A,,Clear,0,2012-11-17 06:53:00